sat.trackr.live / text

‹ back to catalog

STARLINK-35727

NORAD 66281 · 2025-247S

PAYLOAD ACTIVE UNKNOWN

§ Identity

Operator
Country
US
Launch date
2025-10-31
Launch site
AFWTR
Launch vehicle
Mass (kg)
RCS (m²)

Purposes: comms

External: N2YO · Heavens-Above · Gunter

§ Orbital elements

Epoch: 2026-09-20T13:37:21.933408Z

Period
93.85 min
Inclination
53.1601°
Eccentricity
0.0000735
Mean motion
15.34376192 rev/d
Perigee alt
462.3 km
Apogee alt
463.3 km
Semi-major
6,840.9 km
B*
-2.7644e-4
RAAN
3.1829°
Arg perigee
68.4464°
Mean anomaly
291.6617°
Rev number
5,091

§ Raw data

STARLINK-357271 66281U 25247S   26263.56761497 -.00009697  00000+0 -27644-3 0  99952 66281  53.1601   3.1829 0000735  68.4464 291.6617 15.34376192 50919

JSON: /api/v1/satellites/66281 · /tle

For live sub-satellite position, see the globe view (requires WebGL).

§ Visibility from observer

Set your observer location to see the next 7 days of passes ≥ 10°. The values pass through the URL so the page stays shareable.

No JS? Fill the form by hand. The geolocation button needs JavaScript.